sat.trackr.live / text

‹ back to catalog

STARLINK-34510

NORAD 64596 · 2025-137C

PAYLOAD ACTIVE UNKNOWN

§ Identity

Operator
Country
US
Launch date
2025-06-25
Launch site
AFETR
Launch vehicle
Mass (kg)
RCS (m²)

Purposes: comms

External: N2YO · Heavens-Above · Gunter

§ Orbital elements

Epoch: 2026-09-19T22:26:39.511392Z

Period
93.85 min
Inclination
53.1586°
Eccentricity
0.0001356
Mean motion
15.34404009 rev/d
Perigee alt
461.8 km
Apogee alt
463.6 km
Semi-major
6,840.8 km
B*
4.7932e-4
RAAN
150.2283°
Arg perigee
75.7417°
Mean anomaly
284.3736°
Rev number
7,051

§ Raw data

STARLINK-345101 64596U 25137C   26262.93517953  .00015855  00000+0  47932-3 0  99992 64596  53.1586 150.2283 0001356  75.7417 284.3736 15.34404009 70513

JSON: /api/v1/satellites/64596 · /tle

For live sub-satellite position, see the globe view (requires WebGL).

§ Visibility from observer

Set your observer location to see the next 7 days of passes ≥ 10°. The values pass through the URL so the page stays shareable.

No JS? Fill the form by hand. The geolocation button needs JavaScript.